contact:dominique.lefevre@mio.osupytheas.fr, maurice.libes@osupytheas.fr, didier.mallarino@osupytheas.fr
Project:EMSO http://www.emso-fr.org/EMSO-France
Depth: 2436.0 m
Title:EMSO Ligure Ouest : Data MII capteur MICROCAT
DateTime_Computer,Latitude,Longitude,Temperature,Conductivity,Pressure,DateTime_Instrument
DateTime_Computer,Latitude,Longitude,degC,S m-1,dbar,DateTime_Instrument
2023-11-06T00:01:07Z,42.805,6.029,13.3056,4.60114,2470.8,2023-11-06T02:03:33Z
2023-11-06T00:04:10Z,42.805,6.029,13.3038,4.60099,2470.824,2023-11-06T02:06:36Z
2023-11-06T00:07:13Z,42.805,6.029,13.3051,4.60130,2470.81,2023-11-06T02:09:39Z
2023-11-06T00:10:16Z,42.805,6.029,13.3057,4.60119,2470.824,2023-11-06T02:12:42Z
2023-11-06T00:13:19Z,42.805,6.029,13.3029,4.60104,2470.81,2023-11-06T02:15:45Z
2023-11-06T00:16:22Z,42.805,6.029,13.3037,4.60098,2470.81,2023-11-06T02:18:48Z
2023-11-06T00:19:25Z,42.805,6.029,13.3029,4.60097,2470.824,2023-11-06T02:21:51Z
2023-11-06T00:22:28Z,42.805,6.029,13.3043,4.60104,2470.81,2023-11-06T02:24:55Z
2023-11-06T00:25:31Z,42.805,6.029,13.3036,4.60121,2470.81,2023-11-06T02:27:58Z
2023-11-06T00:28:34Z,42.805,6.029,13.3041,4.60102,2470.81,2023-11-06T02:31:01Z
2023-11-06T00:31:37Z,42.805,6.029,13.3036,4.60114,2470.833,2023-11-06T02:34:04Z
2023-11-06T00:34:40Z,42.805,6.029,13.3050,4.60119,2470.847,2023-11-06T02:37:07Z
2023-11-06T00:37:43Z,42.805,6.029,13.3074,4.60119,2470.787,2023-11-06T02:40:10Z
2023-11-06T00:40:47Z,42.805,6.029,13.3046,4.60112,2470.81,2023-11-06T02:43:13Z
2023-11-06T00:43:50Z,42.805,6.029,13.3045,4.60107,2470.824,2023-11-06T02:46:16Z
2023-11-06T00:46:53Z,42.805,6.029,13.3067,4.60122,2470.81,2023-11-06T02:49:19Z
2023-11-06T00:49:56Z,42.805,6.029,13.3055,4.60128,2470.833,2023-11-06T02:52:22Z
2023-11-06T00:52:59Z,42.805,6.029,13.3061,4.60146,2470.787,2023-11-06T02:55:25Z
2023-11-06T00:56:02Z,42.805,6.029,13.3054,4.60152,2470.81,2023-11-06T02:58:28Z
2023-11-06T00:59:05Z,42.805,6.029,13.3058,4.60147,2470.81,2023-11-06T03:01:31Z
2023-11-06T01:02:08Z,42.805,6.029,13.3048,4.60173,2470.824,2023-11-06T03:04:35Z
2023-11-06T01:05:11Z,42.805,6.029,13.3073,4.60156,2470.833,2023-11-06T03:07:38Z
2023-11-06T01:08:14Z,42.805,6.029,13.3057,4.60179,2470.847,2023-11-06T03:10:41Z
2023-11-06T01:11:17Z,42.805,6.029,13.3056,4.60160,2470.8,2023-11-06T03:13:44Z
2023-11-06T01:14:20Z,42.805,6.029,13.3047,4.60187,2470.824,2023-11-06T03:16:47Z
2023-11-06T01:17:24Z,42.805,6.029,13.3074,4.60135,2470.833,2023-11-06T03:19:50Z
2023-11-06T01:20:27Z,42.805,6.029,13.3056,4.60144,2470.824,2023-11-06T03:22:53Z
2023-11-06T01:23:30Z,42.805,6.029,13.3054,4.60170,2470.787,2023-11-06T03:25:56Z
2023-11-06T01:26:33Z,42.805,6.029,13.3049,4.60210,2470.81,2023-11-06T03:28:59Z
2023-11-06T01:29:36Z,42.805,6.029,13.3054,4.60148,2470.81,2023-11-06T03:32:02Z
2023-11-06T01:32:39Z,42.805,6.029,13.3082,4.60162,2470.824,2023-11-06T03:35:05Z
2023-11-06T01:35:42Z,42.805,6.029,13.3053,4.60175,2470.847,2023-11-06T03:38:08Z
2023-11-06T01:38:45Z,42.805,6.029,13.3067,4.60187,2470.81,2023-11-06T03:41:11Z
2023-11-06T01:41:48Z,42.805,6.029,13.3056,4.60180,2470.81,2023-11-06T03:44:14Z
2023-11-06T01:44:51Z,42.805,6.029,13.3061,4.60140,2470.81,2023-11-06T03:47:18Z
2023-11-06T01:47:54Z,42.805,6.029,13.3064,4.60152,2470.81,2023-11-06T03:50:21Z
2023-11-06T01:50:57Z,42.805,6.029,13.3062,4.60173,2470.8,2023-11-06T03:53:24Z
2023-11-06T01:54:00Z,42.805,6.029,13.3063,4.60155,2470.824,2023-11-06T03:56:27Z
2023-11-06T01:57:03Z,42.805,6.029,13.3056,4.60170,2470.81,2023-11-06T03:59:30Z
2023-11-06T02:00:07Z,42.805,6.029,13.3068,4.60188,2470.81,2023-11-06T04:02:33Z
2023-11-06T02:03:10Z,42.805,6.029,13.3072,4.60157,2470.8,2023-11-06T04:05:36Z
2023-11-06T02:06:13Z,42.805,6.029,13.3079,4.60178,2470.81,2023-11-06T04:08:39Z
2023-11-06T02:09:16Z,42.805,6.029,13.3076,4.60162,2470.847,2023-11-06T04:11:42Z
2023-11-06T02:12:19Z,42.805,6.029,13.3073,4.60157,2470.81,2023-11-06T04:14:45Z
2023-11-06T02:15:22Z,42.805,6.029,13.3074,4.60158,2470.787,2023-11-06T04:17:48Z
2023-11-06T02:18:25Z,42.805,6.029,13.3082,4.60172,2470.847,2023-11-06T04:20:51Z
2023-11-06T02:21:28Z,42.805,6.029,13.3088,4.60179,2470.847,2023-11-06T04:23:54Z
2023-11-06T02:24:31Z,42.805,6.029,13.3097,4.60167,2470.787,2023-11-06T04:26:58Z
2023-11-06T02:27:34Z,42.805,6.029,13.3096,4.60191,2470.8,2023-11-06T04:30:01Z
2023-11-06T02:30:37Z,42.805,6.029,13.3118,4.60145,2470.81,2023-11-06T04:33:04Z
2023-11-06T02:33:40Z,42.805,6.029,13.3106,4.60175,2470.824,2023-11-06T04:36:07Z
2023-11-06T02:36:43Z,42.805,6.029,13.3081,4.60137,2470.847,2023-11-06T04:39:10Z
2023-11-06T02:39:47Z,42.805,6.029,13.3054,4.60140,2470.81,2023-11-06T04:42:13Z
2023-11-06T02:42:50Z,42.805,6.029,13.3036,4.60165,2470.833,2023-11-06T04:45:16Z
2023-11-06T02:45:53Z,42.805,6.029,13.3133,4.60169,2470.81,2023-11-06T04:48:19Z
2023-11-06T02:48:56Z,42.805,6.029,13.3051,4.60147,2470.787,2023-11-06T04:51:22Z
2023-11-06T02:51:59Z,42.805,6.029,13.3069,4.60176,2470.871,2023-11-06T04:54:25Z
2023-11-06T02:55:02Z,42.805,6.029,13.3082,4.60165,2470.824,2023-11-06T04:57:28Z
2023-11-06T02:58:05Z,42.805,6.029,13.3081,4.60129,2470.833,2023-11-06T05:00:31Z
2023-11-06T03:01:08Z,42.805,6.029,13.3073,4.60112,2470.81,2023-11-06T05:03:34Z
2023-11-06T03:04:11Z,42.805,6.029,13.3069,4.60112,2470.82,2023-11-06T05:06:38Z
2023-11-06T03:07:14Z,42.805,6.029,13.3073,4.60121,2470.81,2023-11-06T05:09:41Z
2023-11-06T03:10:17Z,42.805,6.029,13.3039,4.60151,2470.833,2023-11-06T05:12:44Z
2023-11-06T03:13:20Z,42.805,6.029,13.3029,4.60158,2470.796,2023-11-06T05:15:47Z
2023-11-06T03:16:23Z,42.805,6.029,13.3034,4.60196,2470.81,2023-11-06T05:18:50Z
2023-11-06T03:19:27Z,42.805,6.029,13.3036,4.60193,2470.847,2023-11-06T05:21:53Z
2023-11-06T03:22:30Z,42.805,6.029,13.3049,4.60121,2470.833,2023-11-06T05:24:56Z
2023-11-06T03:25:33Z,42.805,6.029,13.3040,4.60106,2470.81,2023-11-06T05:27:59Z
2023-11-06T03:28:36Z,42.805,6.029,13.3030,4.60110,2470.833,2023-11-06T05:31:02Z
2023-11-06T03:31:39Z,42.805,6.029,13.3031,4.60110,2470.847,2023-11-06T05:34:05Z
2023-11-06T03:34:42Z,42.805,6.029,13.3033,4.60109,2470.833,2023-11-06T05:37:08Z
2023-11-06T03:37:45Z,42.805,6.029,13.3029,4.60110,2470.857,2023-11-06T05:40:11Z
2023-11-06T03:40:48Z,42.805,6.029,13.3034,4.60109,2470.847,2023-11-06T05:43:14Z
2023-11-06T03:43:51Z,42.805,6.029,13.3034,4.60117,2470.81,2023-11-06T05:46:18Z
2023-11-06T03:46:54Z,42.805,6.029,13.3031,4.60117,2470.81,2023-11-06T05:49:21Z
2023-11-06T03:49:57Z,42.805,6.029,13.3031,4.60123,2470.824,2023-11-06T05:52:24Z
2023-11-06T03:53:00Z,42.805,6.029,13.3029,4.60116,2470.857,2023-11-06T05:55:27Z
2023-11-06T03:56:03Z,42.805,6.029,13.3029,4.60122,2470.833,2023-11-06T05:58:30Z
2023-11-06T03:59:07Z,42.805,6.029,13.3026,4.60109,2470.81,2023-11-06T06:01:33Z
2023-11-06T04:02:10Z,42.805,6.029,13.3029,4.60107,2470.833,2023-11-06T06:04:36Z
2023-11-06T04:05:13Z,42.805,6.029,13.3025,4.60107,2470.81,2023-11-06T06:07:39Z
2023-11-06T04:08:16Z,42.805,6.029,13.3029,4.60108,2470.833,2023-11-06T06:10:42Z
2023-11-06T04:11:19Z,42.805,6.029,13.3027,4.60106,2470.833,2023-11-06T06:13:45Z
2023-11-06T04:14:22Z,42.805,6.029,13.3029,4.60104,2470.81,2023-11-06T06:16:48Z
2023-11-06T04:17:25Z,42.805,6.029,13.3027,4.60138,2470.81,2023-11-06T06:19:51Z
2023-11-06T04:20:28Z,42.805,6.029,13.3028,4.60118,2470.833,2023-11-06T06:22:54Z
2023-11-06T04:23:31Z,42.805,6.029,13.3024,4.60103,2470.833,2023-11-06T06:25:58Z
2023-11-06T04:26:34Z,42.805,6.029,13.3025,4.60102,2470.847,2023-11-06T06:29:01Z
2023-11-06T04:29:37Z,42.805,6.029,13.3029,4.60102,2470.847,2023-11-06T06:32:04Z
2023-11-06T04:32:40Z,42.805,6.029,13.3028,4.60102,2470.871,2023-11-06T06:35:07Z
2023-11-06T04:35:43Z,42.805,6.029,13.3028,4.60113,2470.857,2023-11-06T06:38:10Z
2023-11-06T04:38:46Z,42.805,6.029,13.3025,4.60113,2470.857,2023-11-06T06:41:13Z
2023-11-06T04:41:50Z,42.805,6.029,13.3029,4.60119,2470.81,2023-11-06T06:44:16Z
2023-11-06T04:44:53Z,42.805,6.029,13.3028,4.60115,2470.833,2023-11-06T06:47:19Z
2023-11-06T04:47:56Z,42.805,6.029,13.3029,4.60102,2470.824,2023-11-06T06:50:22Z
2023-11-06T04:50:59Z,42.805,6.029,13.3028,4.60103,2470.8,2023-11-06T06:53:25Z
2023-11-06T04:54:02Z,42.805,6.029,13.3030,4.60102,2470.81,2023-11-06T06:56:28Z
2023-11-06T04:57:05Z,42.805,6.029,13.3026,4.60108,2470.833,2023-11-06T06:59:31Z
2023-11-06T05:00:08Z,42.805,6.029,13.3030,4.60116,2470.8,2023-11-06T07:02:34Z
2023-11-06T05:03:11Z,42.805,6.029,13.3024,4.60110,2470.81,2023-11-06T07:05:38Z
2023-11-06T05:06:14Z,42.805,6.029,13.3027,4.60104,2470.787,2023-11-06T07:08:41Z
2023-11-06T05:09:17Z,42.805,6.029,13.3025,4.60114,2470.81,2023-11-06T07:11:44Z
2023-11-06T05:12:20Z,42.805,6.029,13.3028,4.60107,2470.824,2023-11-06T07:14:47Z
2023-11-06T05:15:23Z,42.805,6.029,13.3025,4.60108,2470.81,2023-11-06T07:17:50Z
2023-11-06T05:18:27Z,42.805,6.029,13.3027,4.60109,2470.824,2023-11-06T07:20:53Z
2023-11-06T05:21:30Z,42.805,6.029,13.3029,4.60113,2470.787,2023-11-06T07:23:56Z
2023-11-06T05:24:33Z,42.805,6.029,13.3027,4.60109,2470.787,2023-11-06T07:26:59Z
2023-11-06T05:27:36Z,42.805,6.029,13.3027,4.60109,2470.81,2023-11-06T07:30:02Z
2023-11-06T05:30:39Z,42.805,6.029,13.3028,4.60119,2470.81,2023-11-06T07:33:05Z
2023-11-06T05:33:42Z,42.805,6.029,13.3026,4.60104,2470.833,2023-11-06T07:36:08Z
2023-11-06T05:36:45Z,42.805,6.029,13.3028,4.60110,2470.763,2023-11-06T07:39:11Z
2023-11-06T05:39:48Z,42.805,6.029,13.3026,4.60107,2470.8,2023-11-06T07:42:14Z
2023-11-06T05:42:51Z,42.805,6.029,13.3029,4.60102,2470.81,2023-11-06T07:45:18Z
2023-11-06T05:45:54Z,42.805,6.029,13.3026,4.60102,2470.81,2023-11-06T07:48:21Z
2023-11-06T05:48:57Z,42.805,6.029,13.3028,4.60107,2470.777,2023-11-06T07:51:24Z
2023-11-06T05:52:00Z,42.805,6.029,13.3031,4.60103,2470.81,2023-11-06T07:54:27Z
2023-11-06T05:55:03Z,42.805,6.029,13.3030,4.60104,2470.833,2023-11-06T07:57:30Z
2023-11-06T05:58:06Z,42.805,6.029,13.3032,4.60103,2470.81,2023-11-06T08:00:33Z
2023-11-06T06:01:10Z,42.805,6.029,13.3031,4.60105,2470.787,2023-11-06T08:03:36Z
2023-11-06T06:04:13Z,42.805,6.029,13.3030,4.60104,2470.833,2023-11-06T08:06:39Z
2023-11-06T06:07:16Z,42.805,6.029,13.3030,4.60099,2470.81,2023-11-06T08:09:42Z
2023-11-06T06:10:19Z,42.805,6.029,13.3033,4.60100,2470.833,2023-11-06T08:12:45Z
2023-11-06T06:13:22Z,42.805,6.029,13.3029,4.60101,2470.8,2023-11-06T08:15:48Z
2023-11-06T06:16:25Z,42.805,6.029,13.3029,4.60099,2470.871,2023-11-06T08:18:51Z
2023-11-06T06:19:28Z,42.805,6.029,13.3031,4.60101,2470.81,2023-11-06T08:21:54Z
2023-11-06T06:22:31Z,42.805,6.029,13.3029,4.60098,2470.824,2023-11-06T08:24:58Z
2023-11-06T06:25:34Z,42.805,6.029,13.3029,4.60101,2470.81,2023-11-06T08:28:01Z
2023-11-06T06:28:37Z,42.805,6.029,13.3031,4.60102,2470.81,2023-11-06T08:31:04Z
2023-11-06T06:31:40Z,42.805,6.029,13.3031,4.60099,2470.847,2023-11-06T08:34:07Z
2023-11-06T06:34:43Z,42.805,6.029,13.3029,4.60095,2470.787,2023-11-06T08:37:10Z
2023-11-06T06:37:46Z,42.805,6.029,13.3026,4.60095,2470.824,2023-11-06T08:40:13Z
2023-11-06T06:40:50Z,42.805,6.029,13.3024,4.60097,2470.81,2023-11-06T08:43:16Z
2023-11-06T06:43:53Z,42.805,6.029,13.3030,4.60096,2470.8,2023-11-06T08:46:19Z
2023-11-06T06:46:56Z,42.805,6.029,13.3030,4.60095,2470.81,2023-11-06T08:49:22Z
2023-11-06T06:49:59Z,42.805,6.029,13.3029,4.60094,2470.81,2023-11-06T08:52:25Z
2023-11-06T06:53:02Z,42.805,6.029,13.3029,4.60095,2470.787,2023-11-06T08:55:28Z
2023-11-06T06:56:05Z,42.805,6.029,13.3027,4.60097,2470.81,2023-11-06T08:58:31Z
2023-11-06T06:59:08Z,42.805,6.029,13.3028,4.60095,2470.81,2023-11-06T09:01:34Z
2023-11-06T07:02:11Z,42.805,6.029,13.3029,4.60095,2470.787,2023-11-06T09:04:38Z
2023-11-06T07:05:14Z,42.805,6.029,13.3026,4.60099,2470.847,2023-11-06T09:07:41Z
2023-11-06T07:08:17Z,42.805,6.029,13.3027,4.60094,2470.824,2023-11-06T09:10:44Z
2023-11-06T07:11:20Z,42.805,6.029,13.3027,4.60095,2470.787,2023-11-06T09:13:47Z
2023-11-06T07:14:23Z,42.805,6.029,13.3028,4.60094,2470.787,2023-11-06T09:16:50Z
2023-11-06T07:17:26Z,42.805,6.029,13.3029,4.60094,2470.81,2023-11-06T09:19:53Z
2023-11-06T07:20:30Z,42.805,6.029,13.3027,4.60094,2470.81,2023-11-06T09:22:56Z
2023-11-06T07:23:33Z,42.805,6.029,13.3029,4.60095,2470.824,2023-11-06T09:25:59Z
2023-11-06T07:26:36Z,42.805,6.029,13.3026,4.60095,2470.81,2023-11-06T09:29:02Z
2023-11-06T07:29:39Z,42.805,6.029,13.3029,4.60094,2470.824,2023-11-06T09:32:05Z
2023-11-06T07:32:43Z,42.805,6.029,13.3025,4.60096,2470.8,2023-11-06T09:35:09Z
2023-11-06T07:35:46Z,42.805,6.029,13.3031,4.60094,2470.833,2023-11-06T09:38:13Z
2023-11-06T07:38:49Z,42.805,6.029,13.3031,4.60093,2470.847,2023-11-06T09:41:16Z
2023-11-06T07:41:52Z,42.805,6.029,13.3029,4.60094,2470.81,2023-11-06T09:44:19Z
2023-11-06T07:44:55Z,42.805,6.029,13.3029,4.60092,2470.871,2023-11-06T09:47:22Z
2023-11-06T07:47:58Z,42.805,6.029,13.3028,4.60094,2470.833,2023-11-06T09:50:25Z
2023-11-06T07:51:02Z,42.805,6.029,13.3024,4.60093,2470.833,2023-11-06T09:53:28Z
2023-11-06T07:54:05Z,42.805,6.029,13.3028,4.60094,2470.81,2023-11-06T09:56:31Z
2023-11-06T07:57:08Z,42.805,6.029,13.3024,4.60093,2470.833,2023-11-06T09:59:34Z
2023-11-06T08:00:11Z,42.805,6.029,13.3026,4.60094,2470.81,2023-11-06T10:02:37Z
2023-11-06T08:03:14Z,42.805,6.029,13.3029,4.60094,2470.81,2023-11-06T10:05:40Z
2023-11-06T08:06:17Z,42.805,6.029,13.3029,4.60093,2470.787,2023-11-06T10:08:43Z
2023-11-06T08:09:20Z,42.805,6.029,13.3029,4.60094,2470.847,2023-11-06T10:11:46Z
2023-11-06T08:12:23Z,42.805,6.029,13.3029,4.60094,2470.857,2023-11-06T10:14:50Z
2023-11-06T08:15:26Z,42.805,6.029,13.3024,4.60094,2470.857,2023-11-06T10:17:53Z
2023-11-06T08:18:29Z,42.805,6.029,13.3029,4.60093,2470.824,2023-11-06T10:20:56Z
2023-11-06T08:21:32Z,42.805,6.029,13.3027,4.60094,2470.833,2023-11-06T10:23:59Z
2023-11-06T08:24:35Z,42.805,6.029,13.3029,4.60099,2470.787,2023-11-06T10:27:02Z
2023-11-06T08:27:38Z,42.805,6.029,13.3024,4.60094,2470.824,2023-11-06T10:30:05Z
2023-11-06T08:30:42Z,42.805,6.029,13.3028,4.60095,2470.833,2023-11-06T10:33:08Z
2023-11-06T08:33:45Z,42.805,6.029,13.3026,4.60095,2470.857,2023-11-06T10:36:11Z
2023-11-06T08:36:48Z,42.805,6.029,13.3029,4.60094,2470.81,2023-11-06T10:39:14Z
2023-11-06T08:39:51Z,42.805,6.029,13.3027,4.60095,2470.833,2023-11-06T10:42:17Z
2023-11-06T08:42:54Z,42.805,6.029,13.3026,4.60099,2470.857,2023-11-06T10:45:20Z
2023-11-06T08:45:57Z,42.805,6.029,13.3026,4.60094,2470.847,2023-11-06T10:48:23Z
2023-11-06T08:49:00Z,42.805,6.029,13.3031,4.60094,2470.847,2023-11-06T10:51:27Z
2023-11-06T08:52:03Z,42.805,6.029,13.3026,4.60094,2470.833,2023-11-06T10:54:30Z
2023-11-06T08:55:06Z,42.805,6.029,13.3028,4.60094,2470.833,2023-11-06T10:57:33Z
2023-11-06T08:58:09Z,42.805,6.029,13.3030,4.60093,2470.847,2023-11-06T11:00:36Z
2023-11-06T09:01:12Z,42.805,6.029,13.3025,4.60094,2470.833,2023-11-06T11:03:39Z
2023-11-06T09:04:15Z,42.805,6.029,13.3025,4.60094,2470.857,2023-11-06T11:06:42Z
2023-11-06T09:07:19Z,42.805,6.029,13.3027,4.60093,2470.833,2023-11-06T11:09:45Z
2023-11-06T09:10:22Z,42.805,6.029,13.3026,4.60096,2470.847,2023-11-06T11:12:48Z
2023-11-06T09:13:25Z,42.805,6.029,13.3026,4.60094,2470.833,2023-11-06T11:15:51Z
2023-11-06T09:16:28Z,42.805,6.029,13.3028,4.60094,2470.847,2023-11-06T11:18:54Z
2023-11-06T09:19:31Z,42.805,6.029,13.3026,4.60094,2470.787,2023-11-06T11:21:57Z
2023-11-06T09:22:34Z,42.805,6.029,13.3027,4.60095,2470.833,2023-11-06T11:25:00Z
2023-11-06T09:25:37Z,42.805,6.029,13.3028,4.60094,2470.857,2023-11-06T11:28:04Z
2023-11-06T09:28:40Z,42.805,6.029,13.3024,4.60101,2470.847,2023-11-06T11:31:07Z
2023-11-06T09:31:42Z,42.805,6.029,13.3030,4.60097,2470.847,2023-11-06T11:34:08Z
2023-11-06T09:34:45Z,42.805,6.029,13.3026,4.60094,2470.857,2023-11-06T11:37:11Z
2023-11-06T09:37:48Z,42.805,6.029,13.3024,4.60094,2470.82,2023-11-06T11:40:15Z
2023-11-06T09:40:51Z,42.805,6.029,13.3028,4.60094,2470.847,2023-11-06T11:43:18Z
2023-11-06T09:43:54Z,42.805,6.029,13.3026,4.60094,2470.847,2023-11-06T11:46:21Z
2023-11-06T09:46:57Z,42.805,6.029,13.3029,4.60095,2470.847,2023-11-06T11:49:24Z
2023-11-06T09:50:00Z,42.805,6.029,13.3028,4.60095,2470.833,2023-11-06T11:52:27Z
2023-11-06T09:53:04Z,42.805,6.029,13.3030,4.60095,2470.833,2023-11-06T11:55:30Z
2023-11-06T09:56:07Z,42.805,6.029,13.3030,4.60095,2470.833,2023-11-06T11:58:33Z
2023-11-06T09:59:10Z,42.805,6.029,13.3029,4.60102,2470.88,2023-11-06T12:01:36Z
2023-11-06T10:02:13Z,42.805,6.029,13.3028,4.60095,2470.857,2023-11-06T12:04:39Z
2023-11-06T10:05:16Z,42.805,6.029,13.3026,4.60094,2470.88,2023-11-06T12:07:42Z
2023-11-06T10:08:19Z,42.805,6.029,13.3029,4.60093,2470.847,2023-11-06T12:10:45Z
2023-11-06T10:11:22Z,42.805,6.029,13.3028,4.60093,2470.88,2023-11-06T12:13:48Z
2023-11-06T10:14:25Z,42.805,6.029,13.3027,4.60097,2470.871,2023-11-06T12:16:52Z
2023-11-06T10:17:28Z,42.805,6.029,13.3027,4.60097,2470.833,2023-11-06T12:19:55Z
2023-11-06T10:20:31Z,42.805,6.029,13.3029,4.60094,2470.871,2023-11-06T12:22:58Z
2023-11-06T10:23:34Z,42.805,6.029,13.3031,4.60093,2470.857,2023-11-06T12:26:01Z
2023-11-06T10:26:37Z,42.805,6.029,13.3026,4.60097,2470.857,2023-11-06T12:29:04Z
2023-11-06T10:29:41Z,42.805,6.029,13.3029,4.60094,2470.833,2023-11-06T12:32:07Z
2023-11-06T10:32:44Z,42.805,6.029,13.3026,4.60096,2470.871,2023-11-06T12:35:10Z
2023-11-06T10:35:47Z,42.805,6.029,13.3029,4.60094,2470.857,2023-11-06T12:38:13Z
2023-11-06T10:38:50Z,42.805,6.029,13.3029,4.60094,2470.857,2023-11-06T12:41:16Z
2023-11-06T10:41:53Z,42.805,6.029,13.3030,4.60094,2470.857,2023-11-06T12:44:19Z
2023-11-06T10:44:56Z,42.805,6.029,13.3028,4.60099,2470.88,2023-11-06T12:47:22Z
2023-11-06T10:47:59Z,42.805,6.029,13.3026,4.60096,2470.857,2023-11-06T12:50:25Z
2023-11-06T10:51:02Z,42.805,6.029,13.3023,4.60094,2470.904,2023-11-06T12:53:28Z
2023-11-06T10:54:05Z,42.805,6.029,13.3029,4.60094,2470.88,2023-11-06T12:56:32Z
2023-11-06T10:57:08Z,42.805,6.029,13.3030,4.60095,2470.894,2023-11-06T12:59:35Z
2023-11-06T11:00:11Z,42.805,6.029,13.3029,4.60093,2470.847,2023-11-06T13:02:38Z
2023-11-06T11:03:14Z,42.805,6.029,13.3026,4.60094,2470.88,2023-11-06T13:05:41Z
2023-11-06T11:06:17Z,42.805,6.029,13.3028,4.60094,2470.88,2023-11-06T13:08:44Z
2023-11-06T11:09:21Z,42.805,6.029,13.3026,4.60094,2470.857,2023-11-06T13:11:47Z
2023-11-06T11:12:24Z,42.805,6.029,13.3027,4.60094,2470.894,2023-11-06T13:14:50Z
2023-11-06T11:15:27Z,42.805,6.029,13.3025,4.60094,2470.88,2023-11-06T13:17:53Z
2023-11-06T11:18:30Z,42.805,6.029,13.3023,4.60093,2470.917,2023-11-06T13:20:56Z
2023-11-06T11:21:33Z,42.805,6.029,13.3029,4.60094,2470.904,2023-11-06T13:23:59Z
2023-11-06T11:24:36Z,42.805,6.029,13.3027,4.60104,2470.894,2023-11-06T13:27:02Z
2023-11-06T11:27:39Z,42.805,6.029,13.3026,4.60093,2470.927,2023-11-06T13:30:05Z
2023-11-06T11:30:42Z,42.805,6.029,13.3028,4.60094,2470.904,2023-11-06T13:33:09Z
2023-11-06T11:33:45Z,42.805,6.029,13.3024,4.60094,2470.927,2023-11-06T13:36:12Z
2023-11-06T11:36:48Z,42.805,6.029,13.3026,4.60093,2470.904,2023-11-06T13:39:15Z
2023-11-06T11:39:51Z,42.805,6.029,13.3031,4.60093,2470.927,2023-11-06T13:42:18Z
2023-11-06T11:42:54Z,42.805,6.029,13.3028,4.60094,2470.917,2023-11-06T13:45:21Z
2023-11-06T11:45:58Z,42.805,6.029,13.3028,4.60098,2470.904,2023-11-06T13:48:24Z
2023-11-06T11:49:01Z,42.805,6.029,13.3024,4.60096,2470.917,2023-11-06T13:51:27Z
2023-11-06T11:52:04Z,42.805,6.029,13.3026,4.60094,2470.857,2023-11-06T13:54:30Z
2023-11-06T11:55:07Z,42.805,6.029,13.3028,4.60100,2470.904,2023-11-06T13:57:33Z
2023-11-06T11:58:10Z,42.805,6.029,13.3029,4.60095,2470.917,2023-11-06T14:00:36Z
2023-11-06T12:01:13Z,42.805,6.029,13.3028,4.60095,2470.894,2023-11-06T14:03:39Z
2023-11-06T12:04:16Z,42.805,6.029,13.3030,4.60095,2470.927,2023-11-06T14:06:43Z
2023-11-06T12:07:19Z,42.805,6.029,13.3031,4.60094,2470.917,2023-11-06T14:09:46Z
2023-11-06T12:10:22Z,42.805,6.029,13.3029,4.60093,2470.904,2023-11-06T14:12:49Z
2023-11-06T12:13:25Z,42.805,6.029,13.3029,4.60096,2470.94,2023-11-06T14:15:52Z
2023-11-06T12:16:28Z,42.805,6.029,13.3031,4.60095,2470.917,2023-11-06T14:18:55Z
2023-11-06T12:19:31Z,42.805,6.029,13.3030,4.60095,2470.904,2023-11-06T14:21:58Z
2023-11-06T12:22:35Z,42.805,6.029,13.3029,4.60094,2470.94,2023-11-06T14:25:01Z
2023-11-06T12:25:38Z,42.805,6.029,13.3028,4.60095,2470.904,2023-11-06T14:28:04Z
2023-11-06T12:28:41Z,42.805,6.029,13.3029,4.60097,2470.904,2023-11-06T14:31:07Z
2023-11-06T12:31:44Z,42.805,6.029,13.3025,4.60096,2470.917,2023-11-06T14:34:10Z
2023-11-06T12:34:47Z,42.805,6.029,13.3031,4.60094,2470.904,2023-11-06T14:37:13Z
2023-11-06T12:37:50Z,42.805,6.029,13.3030,4.60096,2470.94,2023-11-06T14:40:16Z
2023-11-06T12:40:53Z,42.805,6.029,13.3024,4.60095,2470.927,2023-11-06T14:43:20Z
2023-11-06T12:43:56Z,42.805,6.029,13.3030,4.60102,2470.904,2023-11-06T14:46:23Z
2023-11-06T12:46:59Z,42.805,6.029,13.3029,4.60095,2470.88,2023-11-06T14:49:26Z
2023-11-06T12:50:02Z,42.805,6.029,13.3028,4.60096,2470.927,2023-11-06T14:52:29Z
2023-11-06T12:53:05Z,42.805,6.029,13.3028,4.60097,2470.94,2023-11-06T14:55:32Z
2023-11-06T12:56:08Z,42.805,6.029,13.3029,4.60108,2470.904,2023-11-06T14:58:35Z
2023-11-06T12:59:12Z,42.805,6.029,13.3024,4.60097,2470.94,2023-11-06T15:01:38Z
2023-11-06T13:02:15Z,42.805,6.029,13.3031,4.60096,2470.927,2023-11-06T15:04:41Z
2023-11-06T13:05:18Z,42.805,6.029,13.3026,4.60098,2470.904,2023-11-06T15:07:44Z
2023-11-06T13:08:21Z,42.805,6.029,13.3028,4.60102,2470.95,2023-11-06T15:10:47Z
2023-11-06T13:11:24Z,42.805,6.029,13.3031,4.60095,2470.904,2023-11-06T15:13:50Z
2023-11-06T13:14:27Z,42.805,6.029,13.3026,4.60097,2470.927,2023-11-06T15:16:53Z
2023-11-06T13:17:30Z,42.805,6.029,13.3027,4.60097,2470.95,2023-11-06T15:19:56Z
2023-11-06T13:20:33Z,42.805,6.029,13.3025,4.60102,2470.917,2023-11-06T15:23:00Z
2023-11-06T13:23:36Z,42.805,6.029,13.3028,4.60095,2470.95,2023-11-06T15:26:03Z
2023-11-06T13:26:39Z,42.805,6.029,13.3029,4.60095,2470.927,2023-11-06T15:29:06Z
2023-11-06T13:29:42Z,42.805,6.029,13.3028,4.60096,2470.927,2023-11-06T15:32:09Z
2023-11-06T13:32:45Z,42.805,6.029,13.3030,4.60098,2470.95,2023-11-06T15:35:12Z
2023-11-06T13:35:49Z,42.805,6.029,13.3025,4.60097,2470.95,2023-11-06T15:38:15Z
2023-11-06T13:38:52Z,42.805,6.029,13.3031,4.60115,2470.94,2023-11-06T15:41:18Z
2023-11-06T13:41:55Z,42.805,6.029,13.3031,4.60097,2470.927,2023-11-06T15:44:21Z
2023-11-06T13:44:58Z,42.805,6.029,13.3027,4.60098,2470.927,2023-11-06T15:47:24Z
2023-11-06T13:48:01Z,42.805,6.029,13.3026,4.60097,2470.95,2023-11-06T15:50:27Z
2023-11-06T13:51:04Z,42.805,6.029,13.3030,4.60101,2470.927,2023-11-06T15:53:30Z
2023-11-06T13:54:07Z,42.805,6.029,13.3029,4.60103,2470.94,2023-11-06T15:56:33Z
2023-11-06T13:57:10Z,42.805,6.029,13.3034,4.60120,2470.964,2023-11-06T15:59:37Z
2023-11-06T14:00:13Z,42.805,6.029,13.3029,4.60100,2470.95,2023-11-06T16:02:40Z
2023-11-06T14:03:16Z,42.805,6.029,13.3031,4.60098,2470.927,2023-11-06T16:05:43Z
2023-11-06T14:06:19Z,42.805,6.029,13.3028,4.60101,2470.927,2023-11-06T16:08:46Z
2023-11-06T14:09:22Z,42.805,6.029,13.3029,4.60100,2470.927,2023-11-06T16:11:49Z
2023-11-06T14:12:26Z,42.805,6.029,13.3027,4.60115,2470.94,2023-11-06T16:14:52Z
2023-11-06T14:15:29Z,42.805,6.029,13.3029,4.60099,2470.927,2023-11-06T16:17:55Z
2023-11-06T14:18:32Z,42.805,6.029,13.3029,4.60098,2470.94,2023-11-06T16:20:58Z
2023-11-06T14:21:35Z,42.805,6.029,13.3031,4.60105,2470.95,2023-11-06T16:24:01Z
2023-11-06T14:24:38Z,42.805,6.029,13.3030,4.60099,2470.95,2023-11-06T16:27:04Z
2023-11-06T14:27:41Z,42.805,6.029,13.3024,4.60101,2470.927,2023-11-06T16:30:07Z
2023-11-06T14:30:44Z,42.805,6.029,13.3031,4.60100,2470.927,2023-11-06T16:33:10Z
2023-11-06T14:33:47Z,42.805,6.029,13.3025,4.60102,2470.95,2023-11-06T16:36:14Z
2023-11-06T14:36:50Z,42.805,6.029,13.3029,4.60105,2470.95,2023-11-06T16:39:17Z
2023-11-06T14:39:53Z,42.805,6.029,13.3029,4.60104,2470.95,2023-11-06T16:42:20Z
2023-11-06T14:42:56Z,42.805,6.029,13.3029,4.60103,2470.987,2023-11-06T16:45:23Z
2023-11-06T14:45:59Z,42.805,6.029,13.3027,4.60110,2470.95,2023-11-06T16:48:26Z
2023-11-06T14:49:02Z,42.805,6.029,13.3029,4.60109,2470.95,2023-11-06T16:51:29Z
2023-11-06T14:52:06Z,42.805,6.029,13.3029,4.60110,2470.987,2023-11-06T16:54:32Z
2023-11-06T14:55:09Z,42.805,6.029,13.3025,4.60104,2470.964,2023-11-06T16:57:35Z
2023-11-06T14:58:12Z,42.805,6.029,13.3030,4.60104,2470.973,2023-11-06T17:00:38Z
2023-11-06T15:01:15Z,42.805,6.029,13.3027,4.60130,2470.987,2023-11-06T17:03:41Z